Asiatic Wave — 9V8790 — position and weather

sailwx.info

Track history (hours):
 
Tides and Currents Weather Stations Pressure Air Temp Water Temp Dewpoint Dewpoint Depression Visibility Wind Speed Wind Dir Waves Ship Positions

Asiatic Wave

Last reported at 2014-Nov-23 21:29 UTC. Time now 2014-Nov-25 00:48 UTC.
Position N 22°06' E 120°08'.

Length 148 m; draft 8 m.

Type: Ship (hazmat cat A). MMSI: 564211000.

Date/timePositionNaut miles runAvg speedWind from/ knotsBaromVisibWave heightAir tempDewpointWater temp
2014-Nov-23 21:29N 22°06' E 120°08'1112.3
2014-Nov-23 20:33N 22°17' E 120°09'1312.9
2014-Nov-23 19:34N 22°30' E 120°12'8 1.7
2014-Nov-23 15:05N 22°34' E 120°19'0 0.0
2014-Nov-23 11:21N 22°34' E 120°19'0 0.0
2014-Nov-23 10:32N 22°34' E 120°19'0 0.3
2014-Nov-23 09:07N 22°33' E 120°20'0 0.0
2014-Nov-23 07:33N 22°33' E 120°20'0 0.0
2014-Nov-23 04:14N 22°33' E 120°20'4 5.3
2014-Nov-23 03:33N 22°32' E 120°16'0 0.1
2014-Nov-23 02:33N 22°32' E 120°16'0 0.0
2014-Nov-23 01:33N 22°32' E 120°16'0 0.1
2014-Nov-23 00:32N 22°32' E 120°16'0 0.0
2014-Nov-22 23:32N 22°32' E 120°16'0 0.0
2014-Nov-22 22:31N 22°32' E 120°16'1 1.1
2014-Nov-22 21:33N 22°32' E 120°15'9 8.6
2014-Nov-22 20:33N 22°27' E 120°08'1211.9
2014-Nov-22 19:33N 22°17' E 120°00'  
2014-Nov-17 09:12N 01°14' E 104°03'711.7
2014-Nov-17 08:33N 01°16' E 103°56'2 1.0
2014-Nov-17 06:18N 01°17' E 103°54'0 0.1
2014-Nov-17 05:33N 01°17' E 103°54'0 0.0
2014-Nov-17 04:23N 01°17' E 103°54'0 0.1
2014-Nov-17 03:32N 01°17' E 103°54'0 0.0
2014-Nov-17 02:19N 01°17' E 103°54'0 0.1
2014-Nov-17 01:31N 01°17' E 103°54'0 0.0
2014-Nov-17 00:34N 01°17' E 103°54'0 0.0
2014-Nov-16 23:27N 01°17' E 103°54'1 0.7
2014-Nov-16 22:33N 01°16' E 103°54'5 4.7
2014-Nov-16 21:30N 01°12' E 103°53'  
Track history (hours):
 
Tides and Currents Weather Stations Pressure Air Temp Water Temp Dewpoint Dewpoint Depression Visibility Wind Speed Wind Dir Waves Ship Positions

Asiatic Wave

Last reported at 2014-Nov-23 21:29 UTC. Time now 2014-Nov-25 00:48 UTC.
Position N 22°06' E 120°08'.

Length 148 m; draft 8 m.

Type: Ship (hazmat cat A). MMSI: 564211000.

Date/timePositionNaut miles runAvg speedWind from/ knotsBaromVisibWave heightAir tempDewpointWater temp
2014-Nov-23 21:29N 22°06' E 120°08'1112.3
2014-Nov-23 20:33N 22°17' E 120°09'1312.9
2014-Nov-23 19:34N 22°30' E 120°12'8 1.7
2014-Nov-23 15:05N 22°34' E 120°19'0 0.0
2014-Nov-23 11:21N 22°34' E 120°19'0 0.0
2014-Nov-23 10:32N 22°34' E 120°19'0 0.3
2014-Nov-23 09:07N 22°33' E 120°20'0 0.0
2014-Nov-23 07:33N 22°33' E 120°20'0 0.0
2014-Nov-23 04:14N 22°33' E 120°20'4 5.3
2014-Nov-23 03:33N 22°32' E 120°16'0 0.1
2014-Nov-23 02:33N 22°32' E 120°16'0 0.0
2014-Nov-23 01:33N 22°32' E 120°16'0 0.1
2014-Nov-23 00:32N 22°32' E 120°16'0 0.0
2014-Nov-22 23:32N 22°32' E 120°16'0 0.0
2014-Nov-22 22:31N 22°32' E 120°16'1 1.1
2014-Nov-22 21:33N 22°32' E 120°15'9 8.6
2014-Nov-22 20:33N 22°27' E 120°08'1211.9
2014-Nov-22 19:33N 22°17' E 120°00'  
2014-Nov-17 09:12N 01°14' E 104°03'711.7
2014-Nov-17 08:33N 01°16' E 103°56'2 1.0
2014-Nov-17 06:18N 01°17' E 103°54'0 0.1
2014-Nov-17 05:33N 01°17' E 103°54'0 0.0
2014-Nov-17 04:23N 01°17' E 103°54'0 0.1
2014-Nov-17 03:32N 01°17' E 103°54'0 0.0
2014-Nov-17 02:19N 01°17' E 103°54'0 0.1
2014-Nov-17 01:31N 01°17' E 103°54'0 0.0
2014-Nov-17 00:34N 01°17' E 103°54'0 0.0
2014-Nov-16 23:27N 01°17' E 103°54'1 0.7
2014-Nov-16 22:33N 01°16' E 103°54'5 4.7
2014-Nov-16 21:30N 01°12' E 103°53'  

Dump ship's entire track history